Weather History for Saranac Lake, NY

Change the Weather History Date:

Monday, March 4, 2013

  Actual Average Record
Temperature  
Mean Temperature 16 °F 19 °F  
Max Temperature 19 °F 33 °F 50 °F (1964)
Min Temperature 13 °F 6 °F -23 °F (2003)
Degree Days  
Heating Degree Days 49 46  
Month to date heating degree days 180 185  
Since 1 July heating degree days 6437 6890  
Cooling Degree Days 0 0  
Month to date cooling degree days 0 0  
Year to date cooling degree days 0 0  
Moisture  
Dew Point 14 °F    
Average Humidity 90    
Maximum Humidity 96    
Minimum Humidity 84    
Precipitation  
Precipitation 0.02 in 0.05 in 0.81 in (1991)
Month to date precipitation 0.11 0.20  
Year to date precipitation 2.00 3.94  
Sea Level Pressure  
Sea Level Pressure 29.78 in    
Wind  
Wind Speed 7 mph (WSW)    
Max Wind Speed 14 mph    
Max Gust Speed 21 mph    
Visibility 4 miles    
Events Snow    
T = Trace of Precipitation, MM = Missing Value Source: NWS Daily Summary

Daily Weather History Graph

Daily Weather History Graph

Search for Another Location

Airport:

Trip Planner

Search our weather history database for the weather conditions in past years. The results will help you decide how hot, cold, wet, or windy it might be!

Date:

Astronomy

Mar. 04, 2013 Rise Set
Actual Time 6:28 AM EST 5:49 PM EST
Civil Twilight 5:59 AM EST 6:18 PM EST
Nautical Twilight 5:25 AM EST 6:51 PM EST
Astronomical Twilight 4:52 AM EST 7:25 PM EST
Moon 12:44 AM EST (3/4) 10:18 AM EST (3/4)
Length of Visible Light 12h 18m
Length of Day
11h 20m
Waning Gibbous, 52% of the Moon is Illuminated
Mar 4
Waning Gibbous
Mar 4
Last Quarter
Mar 11
New
Mar 19
First Quarter
Mar 27
Full

Hourly Weather History & Observations

Time (EST) Temp. Windchill Dew Point Humidity Pressure Visibility Wind Dir Wind Speed Gust Speed Precip Events Conditions
12:51 AM 17.1 °F 8.7 °F 15.1 °F 92% 29.74 in 4.0 mi Variable 5.8 mph - N/A   Overcast
1:51 AM 17.1 °F 6.6 °F 15.1 °F 92% 29.74 in 3.0 mi West 8.1 mph - N/A   Overcast
2:51 AM 17.1 °F 10.0 °F 15.1 °F 92% 29.74 in 3.0 mi WSW 4.6 mph - N/A   Overcast
4:51 AM 15.1 °F 5.2 °F 12.9 °F 91% 29.75 in 7.0 mi SW 6.9 mph - N/A   Overcast
5:51 AM 14.0 °F 6.5 °F 12.0 °F 92% 29.77 in 10.0 mi Variable 4.6 mph - N/A   Overcast
6:24 AM 14.0 °F 8.2 °F 12.2 °F 93% 29.70 in 2.0 mi Variable 3.5 mph - 0.00 in Snow Light Snow
6:37 AM 14.0 °F 5.1 °F 10.4 °F 86% 29.70 in 4.0 mi West 5.8 mph - 0.00 in Snow Light Snow
7:12 AM 12.2 °F 2.9 °F 10.4 °F 92% 29.70 in 2.0 mi Variable 5.8 mph - 0.00 in Snow Light Snow
7:25 AM 12.2 °F 6.1 °F 10.4 °F 92% 29.70 in 1.5 mi Variable 3.5 mph - 0.00 in Snow Light Snow
7:45 AM 12.2 °F 1.7 °F 10.4 °F 92% 29.70 in 2.0 mi WSW 6.9 mph - 0.00 in Snow Light Snow
7:51 AM 12.9 °F 1.6 °F 10.0 °F 88% 29.79 in 2.5 mi WSW 8.1 mph - 0.00 in Snow Light Snow
8:51 AM 14.0 °F 2.0 °F 10.9 °F 88% 29.79 in 3.0 mi WSW 9.2 mph - 0.00 in Snow Light Snow
9:03 AM 14.0 °F 2.9 °F 10.4 °F 86% 29.70 in 2.5 mi WSW 8.1 mph - 0.00 in Snow Light Snow
9:51 AM 15.1 °F 4.2 °F 12.0 °F 88% 29.79 in 1.8 mi West 8.1 mph 17.3 mph 0.00 in Snow Light Snow
10:51 AM 16.0 °F 2.9 °F 12.0 °F 84% 29.79 in 1.5 mi WSW 11.5 mph - 0.00 in Snow Light Snow
11:17 AM 15.8 °F 2.7 °F 12.2 °F 86% 29.69 in 3.0 mi WSW 11.5 mph - 0.00 in Snow Light Snow
11:51 AM 17.1 °F 4.3 °F 12.9 °F 84% 29.78 in 4.0 mi WSW 11.5 mph 18.4 mph 0.00 in   Overcast
12:51 PM 18.0 °F 9.8 °F 14.0 °F 84% 29.78 in 5.0 mi WSW 5.8 mph - 0.00 in   Overcast
1:43 PM 17.6 °F 7.3 °F 14.0 °F 86% 29.69 in 3.0 mi WSW 8.1 mph - 0.00 in   Overcast
1:58 PM 17.6 °F 6.4 °F 14.0 °F 86% 29.70 in 4.0 mi WSW 9.2 mph 18.4 mph 0.00 in   Overcast
2:10 PM 19.4 °F 8.6 °F 14.0 °F 80% 29.70 in 5.0 mi West 9.2 mph 16.1 mph 0.00 in   Haze
3:43 PM 19.4 °F 9.5 °F 14.0 °F 80% 29.73 in 2.5 mi West 8.1 mph - N/A   Haze
3:51 PM 19.0 °F 10.0 °F 15.1 °F 85% 29.81 in 2.0 mi WSW 6.9 mph - 0.00 in Snow Light Snow
4:15 PM 19.4 °F - 15.8 °F 86% 29.74 in 1.5 mi Calm Calm - 0.00 in Snow Light Snow
4:35 PM 19.4 °F 14.3 °F 15.8 °F 86% 29.74 in 0.8 mi Variable 3.5 mph - 0.00 in Snow Light Snow
4:51 PM 19.0 °F 12.3 °F 15.1 °F 85% 29.84 in 0.8 mi WNW 4.6 mph - 0.00 in Snow Light Snow
5:00 PM 19.4 °F 14.3 °F 15.8 °F 86% 29.75 in 1.0 mi Variable 3.5 mph - 0.00 in Snow Light Snow
5:25 PM 19.4 °F 14.3 °F 15.8 °F 86% 29.76 in 2.5 mi Variable 3.5 mph - 0.00 in Snow Light Snow
5:32 PM 19.4 °F 14.3 °F 15.8 °F 86% 29.76 in 3.0 mi West 3.5 mph - 0.00 in   Overcast
5:41 PM 19.4 °F 14.3 °F 15.8 °F 86% 29.77 in 2.5 mi Variable 3.5 mph - 0.00 in Snow Light Snow
5:51 PM 19.0 °F 12.3 °F 15.1 °F 85% 29.87 in 6.0 mi Variable 4.6 mph - 0.00 in   Overcast
6:34 PM 19.4 °F 12.8 °F 15.8 °F 86% 29.79 in 9.0 mi Variable 4.6 mph - N/A   Overcast
6:51 PM 19.0 °F 12.3 °F 16.0 °F 88% 29.89 in 2.0 mi West 4.6 mph - 0.01 in Snow Light Snow
6:58 PM 19.4 °F - 15.8 °F 86% 29.80 in 1.5 mi Calm Calm - 0.00 in Snow Light Snow
7:28 PM 19.4 °F 14.3 °F 15.8 °F 86% 29.81 in 3.0 mi WSW 3.5 mph - 0.01 in Snow Light Snow
7:51 PM 19.0 °F 12.3 °F 16.0 °F 88% 29.90 in 3.0 mi WSW 4.6 mph - 0.01 in   Overcast
8:51 PM 19.0 °F 12.3 °F 16.0 °F 88% 29.92 in 5.0 mi West 4.6 mph - N/A   Overcast
9:51 PM 19.0 °F - 15.1 °F 85% 29.93 in 7.0 mi Calm Calm - 0.00 in   Overcast
10:51 PM 18.0 °F 12.7 °F 16.0 °F 92% 29.93 in 10.0 mi WSW 3.5 mph - 0.00 in   Overcast
11:47 PM 17.6 °F - 15.8 °F 93% 29.84 in 10.0 mi Calm Calm - N/A   Overcast
11:51 PM 18.0 °F - 16.0 °F 92% 29.93 in 10.0 mi Calm Calm - N/A   Overcast